Preview of NWS' New Version of Forecast
This preview is not operational and should not be used for support decisions.

Regional Weather Roundup (RWR)

Issued by National Weather Service (NWS)

                            
000
ASUS43 KDMX 171606
RWRIA 

WEATHER ROUNDUP FOR IOWA
NATIONAL WEATHER SERVICE DES MOINES IA
1100 AM CDT TUE SEP 17 2019

NOTE: "FAIR" INDICATES FEW OR NO CLOUDS BELOW 12,000 FEET WITH NO
SIGNIFICANT WEATHER AND/OR OBSTRUCTIONS TO VISIBILITY.

* - THESE STATIONS ARE NOT NWS STATIONS...THUS NOT UNDER NWS
QUALITY CONTROL.  THEY ALSO DO NOT REPORT WEATHER SUCH 
AS PRECIPITATION OR FOG.  

IAZ001>003-012>014-020>022-031>034-043>046-171700-
   NORTHWEST IOWA
  
CITY           SKY/WX    TMP DP  RH WIND       PRES   REMARKS
CARROLL *      SUNNY     84  72  65 S16       30.01S HX  89           
CHEROKEE *     SUNNY     81  72  74 S14G22    29.97S HX  85           
DENISON *      SUNNY     82  75  78 S14G22    30.00F HX  89           
LE MARS *      SUNNY     81  72  74 S20       29.92S HX  84           
SHELDON *      SUNNY     81  72  74 S16G25    29.92S HX  84           
SIOUX CITY     SUNNY     81  69  67 S18G29    29.93S HX  84           
SPENCER        SUNNY     82  70  66 S18G26    29.97S HX  86           
STORM LAKE *   SUNNY     81  72  74 S16G24    29.96F HX  84           
$$
 
IAZ055>058-069>071-079>083-090>094-171700-
   SOUTHWEST IOWA
  
CITY           SKY/WX    TMP DP  RH WIND       PRES   REMARKS
ATLANTIC *     SUNNY     82  73  74 S12       30.01F HX  88           
AUDUBON *        N/A     82  73  74 S13       30.03F HX  88           
CLARINDA *     SUNNY     84  75  74 S13       30.05S HX  92           
COUNCIL BLFS * SUNNY     81  73  78 S15       29.98F HX  85           
CRESTON *      SUNNY     81  70  69 S14G20    30.06S HX  84           
HARLAN  *      SUNNY     82  72  69 S10G20    30.00F HX  87           
LAMONI         SUNNY     81  70  69 S9        30.07S HX  84           
RED OAK *      SUNNY     84  72  65 S10G17    30.02S HX  89           
SHENANDOAH *   SUNNY     86  70  58 S17       30.00S HX  90           
$$
 
IAZ047>049-059>061-072>074-084-171700-
   CENTRAL IOWA
  
CITY           SKY/WX    TMP DP  RH WIND       PRES   REMARKS
AMES           SUNNY     81  71  71 SE9       30.06S HX  85           
ANKENY *       SUNNY     81  72  74 SE8       30.06F HX  84           
BOONE *        SUNNY     81  73  78 SE13G18   30.04F HX  85           
CHARITON *     SUNNY     79  75  89 SE10      30.07F HX  82           
DES MOINES     PTSUNNY   81  70  69 SE13      30.05S HX  84           
GRINNELL*      SUNNY     76  69  77 SE14      30.11R                  
KNOXVILLE *    SUNNY     79  73  83 SE9       30.08S HX  82           
MARSHALLTOWN   SUNNY     76  70  82 S14       30.08S                  
NEWTON *       SUNNY     77  72  83 SE10      30.08S                  
PELLA *        SUNNY     80  68  68 SE9       30.09F HX  82           
PERRY *        FAIR      83  69  62 S9        30.04F HX  87           
$$
 
IAZ004>006-015-016-023>025-035-036-171700-
   NORTH CENTRAL IOWA
  
CITY           SKY/WX    TMP DP  RH WIND       PRES   REMARKS
ALGONA *       SUNNY     81  75  83 S16G23    30.00S HX  86           
CLARION *      SUNNY     82  72  69 S15       30.04F HX  87           
ESTHERVILLE    SUNNY     78  70  76 S23G31    29.97F HX  80           
FORT DODGE *   SUNNY     81  72  74 S13G20    30.03F HX  85           
MASON CITY     SUNNY     78  67  68 S12       30.07F HX  80           
FOREST CITY *  FAIR      81  70  69 S16       30.04F HX  84           
IOWA FALLS *     N/A     78  66  67 SE12      30.08F HX  80           
$$

IAZ007>011-017>019-026>030-037>042-050>054-066-171700-
   NORTHEAST IOWA
  
CITY           SKY/WX    TMP DP  RH WIND       PRES   REMARKS
CEDAR RAPIDS   FAIR      74  65  73 SE10      30.11S                  
CHARLES CITY * FAIR      73  66  78 SE8       30.10S                  
CLINTON *      CLOUDY    68  66  93 SE9       30.17S FOG              
DECORAH *      FAIR      75  63  64 S8        30.10F                  
DUBUQUE        CLOUDY    65  65 100 SE8       30.16S FOG              
MONTICELLO *   CLOUDY    68  68 100 VRB7      30.14S FOG              
OELWEIN *      SUNNY     75  64  69 S15       30.11S                  
WATERLOO       FAIR      80  65  59 SE12      30.08S HX  82           
$$
 
IAZ064-065-067-068-078-171700-
   EAST CENTRAL IOWA
  
CITY           SKY/WX    TMP DP  RH WIND       PRES   REMARKS
DAVENPORT      CLOUDY    69  65  86 E10       30.17R                  
IOWA CITY      FAIR      73  66  78 SE8       30.14R                  
MUSCATINE *    CLOUDY    70  66  88 SE8       30.14S                  
QUAD CITIES    CLOUDY    70  66  87 E7        30.15S FOG              
$$
 
IAZ062-063-075>077-085>089-095>099-171700-
   SOUTHEAST IOWA
  
CITY           SKY/WX    TMP DP  RH WIND       PRES   REMARKS
BURLINGTON     CLOUDY    71  66  84 SE6       30.14R                  
FAIRFIELD *    SUNNY     77  72  83 SE14      30.11S                  
FORT MADISON * SUNNY     75  72  88 SE6       30.13S                  
KEOKUK *       SUNNY     77  70  78 E9        30.12S                  
OSKALOOSA *    FAIR      79  68  68 SE9       30.10S HX  82           
CENTERVILLE *  FAIR      79  73  83 SE5       30.11S HX  82           
OTTUMWA        SUNNY     78  69  73 SE13      30.09S HX  80           
WASHINGTON *     N/A    N/A N/A N/A MISG        N/A                   
$$

ABBREVIATIONS USED IN REMARKS
   TC - TEMPERATURES IN CELSIUS
  WCI - WIND CHILL INDEX
   HX - HEAT INDEX
  VSB - VISIBILITY  
$$